SCP
1 1 0 0 0 0 0 0 0 1 1 1 1 1 1 1 1 1 1 1 1 2 3 4 5 5 4 5 6 8 7 5 4 5 7 9 9 10 10 8 4 2 2 1
1 1 1 1 0 0 0 0 1 1 1 1 1 1 1 1 1 1 1 1 1 2 3 5 6 5 5 5 6 6 6 5 5 6 8 9 9 9 8 6 3 2 2 1
1 0 0 1 1 0 0 1 1 1 1 1 1 1 1 1 1 1 1 1 1 2 3 4 5 5 5 5 5 5 5 5 5 6 7 7 6 5 4 3 2 2 2 2
0 0 0 0 1 1 1 1 1 1 1 1 1 1 1 1 1 1 1 1 1 2 2 3 4 4 4 4 4 4 4 3 3 4 4 4 3 3 2 2 2 2 2 2
0 0 0 0 1 1 1 1 1 1 1 1 1 1 1 1 1 1 1 1 1 1 2 3 3 3 3 3 3 3 3 3 3 3 3 3 2 2 2 2 3 3 3 3
1 0 0 1 1 1 1 1 1 1 1 1 1 1 1 1 1 1 1 1 1 1 1 2 3 4 4 3 3 3 3 3 3 3 3 3 3 2 3 3 3 3 3 4
1 1 1 1 1 1 1 1 1 1 1 1 1 1 1 1 1 1 1 1 1 1 1 2 3 3 3 3 3 3 3 4 4 4 4 3 3 3 3 4 4 4 4 4
1 1 1 1 1 1 1 1 1 1 1 1 1 1 1 1 1 1 1 2 2 1 1 2 2 3 3 3 3 3 4 4 5 4 4 3 3 3 3 3 3 3 3 3
2 2 1 1 1 1 1 1 1 1 1 1 1 1 1 1 1 1 2 2 2 2 2 3 3 4 4 4 3 3 4 5 5 5 4 3 3 3 3 2 2 2 2 2
2 1 1 1 1 1 1 1 1 1 1 1 1 1 1 1 1 2 2 2 2 2 3 4 5 5 5 4 4 4 5 6 6 5 4 3 3 2 2 2 2 1 1 1
2 1 1 1 1 1 1 0 1 1 1 1 1 1 1 1 1 2 2 1 2 3 4 5 5 5 4 3 3 4 5 7 7 5 4 3 2 1 1 1 1 1 1 1
1 1 1 1 1 1 1 1 1 1 1 1 1 1 1 1 1 1 1 1 2 3 3 3 3 3 3 2 2 3 5 7 7 5 3 2 1 1 1 1 1 0 0 1
1 1 1 1 1 1 1 1 1 1 1 1 1 1 1 2 2 1 1 1 2 2 2 2 2 2 2 1 2 3 5 6 6 4 2 1 1 1 0 0 0 0 0 0
1 1 1 0 1 1 1 1 1 1 1 1 1 1 2 2 2 2 1 1 2 2 1 1 1 1 1 1 1 2 4 5 5 3 2 1 1 1 1 0 0 0 0 0
0 0 0 0 0 1 1 1 1 1 1 1 2 2 2 3 2 2 2 2 2 1 1 1 1 1 1 1 1 3 4 4 4 3 2 1 1 1 1 1 1 1 1 1
0 0 0 0 0 1 1 1 1 1 1 1 2 3 3 4 4 3 2 2 1 1 1 1 1 1 1 1 1 2 3 3 2 2 1 1 1 1 1 1 1 1 1 1
0 0 0 0 0 1 1 1 1 1 1 1 2 2 3 4 4 3 2 2 2 1 1 1 1 0 1 1 1 1 1 1 1 1 1 1 1 1 1 1 1 1 1 1
0 0 0 0 0 1 1 1 1 1 1 1 2 2 3 3 4 4 3 3 2 2 1 1 1 0 1 1 1 0 0 0 0 0 0 1 1 1 1 1 1 1 1 1
0 0 0 0 0 1 2 2 2 1 1 2 3 3 4 4 4 4 4 3 3 3 2 1 1 1 1 0 0 0 0 0 0 0 0 0 1 1 1 1 1 1 1 1
0 0 0 0 0 1 2 2 2 2 2 2 3 4 4 5 4 4 3 2 2 2 1 1 1 1 1 0 0 0 0 0 0 0 0 0 0 1 1 1 1 1 1 1
1 0 0 0 1 1 2 2 3 3 2 3 3 3 4 4 3 3 2 1 1 1 1 0 0 1 1 0 0 0 0 0 0 0 0 0 0 1 1 2 1 1 1 1
1 0 0 0 1 1 2 2 2 2 2 2 2 3 4 4 3 2 1 1 0 0 0 0 0 0 0 0 0 0 1 1 1 1 0 0 1 1 2 2 2 2 1 1
0 0 0 0 0 1 1 2 2 2 2 2 2 3 4 4 3 1 1 1 0 0 0 0 0 0 0 0 0 0 1 1 1 1 1 1 1 1 2 2 2 2 2 2
0 0 0 0 0 0 1 1 1 1 1 1 1 2 2 2 1 1 1 0 0 0 0 0 0 0 0 0 0 0 1 1 1 1 1 1 1 1 1 2 2 2 2 2
0 0 1 0 0 0 0 0 0 1 1 1 1 1 1 0 0 1 1 0 0 0 0 0 0 0 0 0 0 1 1 1 1 1 1 1 1 1 1 1 1 1 1 1
0 0 0 0 0 0 0 0 0 1 1 1 1 1 1 0 0 1 1 1 0 0 0 0 0 0 0 0 0 0 1 1 1 1 1 1 1 1 1 1 0 0 0 0
0 0 0 0 0 1 1 0 1 1 1 1 1 1 1 1 1 1 1 1 1 1 1 0 0 0 0 0 0 0 1 1 1 1 1 1 1 1 0 0 0 0 0 0
Wind_Speed
8 6 7 8 8 9 10 10 9 6 5 3 1 1 1 1 2 3 4 5 6 5 5 5 5 5 5 5 5 5 5 5 5 5 4 4 3 3 3 3 2 2 2 2
9 7 7 8 9 9 9 10 9 7 5 1 1 0 1 1 2 2 3 4 5 5 5 6 6 5 5 4 4 5 5 4 4 5 5 4 3 3 3 2 2 2 2 2
8 7 8 9 7 8 8 7 7 7 3 2 1 1 1 1 1 1 2 3 4 4 5 5 5 5 5 5 5 5 5 4 4 5 5 4 4 3 3 2 2 2 2 2
7 7 10 2 1 3 5 4 4 3 1 1 1 1 1 1 1 1 1 2 3 3 4 4 4 5 5 5 5 5 5 4 4 4 5 4 4 3 3 2 2 2 2 2
7 8 6 4 3 3 4 3 1 1 1 0 1 2 3 3 2 1 0 1 2 3 3 4 4 5 5 5 5 5 5 5 4 4 4 4 4 3 2 2 3 3 3 3
8 8 5 3 2 1 4 4 3 2 1 1 1 3 2 4 3 2 1 1 2 2 3 3 4 5 5 5 5 5 5 5 5 5 4 4 3 3 2 2 3 3 2 2
9 7 2 5 1 3 6 3 4 3 2 2 2 3 3 3 3 2 2 1 2 2 2 3 3 5 5 5 5 5 4 5 5 5 4 4 3 3 3 3 2 3 2 2
6 6 2 5 1 1 4 4 2 2 2 2 2 2 1 2 2 1 1 1 1 2 2 2 3 4 5 5 4 4 5 5 4 4 4 3 3 3 3 3 3 3 3 3
3 3 5 4 4 4 2 2 2 1 1 1 1 2 1 1 1 1 1 1 1 2 2 2 3 4 4 3 4 4 5 5 4 4 4 3 4 4 4 4 3 3 3 3
1 3 3 4 4 3 2 2 1 1 1 1 1 1 1 1 1 1 1 1 1 2 2 2 3 3 3 3 4 4 5 5 5 5 5 5 4 4 3 3 3 2 3 3
2 2 1 2 3 3 2 2 2 2 2 2 2 1 1 1 1 1 1 0 1 1 1 2 2 2 2 3 3 4 4 4 5 5 5 4 4 2 3 2 2 3 3 3
1 2 2 2 3 3 3 3 2 2 2 2 2 2 1 0 0 0 0 1 1 1 1 1 1 2 2 2 3 3 4 4 4 4 3 4 4 3 1 2 2 3 3 4
2 2 1 1 2 2 2 3 2 2 2 3 3 2 2 1 1 0 0 1 1 1 1 1 1 1 2 2 3 3 4 4 4 3 3 3 3 3 3 2 3 4 5 5
2 1 1 1 2 2 2 2 2 2 2 2 3 2 1 1 1 1 1 0 0 0 0 1 1 1 1 2 3 3 4 3 4 3 3 4 3 3 3 3 3 4 5 6
1 1 1 1 1 1 2 2 2 2 3 3 3 2 1 1 1 1 1 0 0 0 0 1 1 1 1 2 3 3 3 2 2 3 4 4 4 4 3 4 4 3 3 5
1 1 1 1 2 2 2 2 3 3 4 4 4 3 2 2 1 1 1 0 1 1 1 1 1 1 1 2 2 3 3 3 4 4 4 4 4 4 4 3 4 3 3 2
0 0 1 1 2 2 3 3 3 3 4 4 4 3 3 2 1 1 1 1 1 1 1 1 1 1 2 2 3 3 3 3 5 5 4 3 3 3 3 3 3 2 2 1
1 1 0 1 2 2 3 3 3 3 4 4 3 3 3 3 2 2 2 1 1 1 2 1 1 1 2 2 2 3 2 2 3 3 2 2 2 3 2 2 2 3 2 3
2 2 2 2 2 2 2 3 3 4 4 4 4 4 3 3 3 2 2 1 1 1 2 3 2 2 2 1 2 3 3 3 2 2 2 2 3 3 2 2 2 2 3 2
3 3 3 3 3 2 3 3 4 4 4 4 4 4 4 3 3 3 2 2 2 3 3 3 2 2 1 1 3 3 2 2 2 2 1 2 2 2 2 2 1 2 2 2
3 3 3 4 4 4 3 3 4 4 4 4 3 3 3 3 3 3 3 2 3 3 3 1 2 2 2 2 4 3 2 2 2 2 1 1 2 2 1 1 2 2 2 2
3 3 3 3 3 4 4 4 4 4 4 3 4 3 3 3 3 2 2 2 3 3 3 2 2 3 4 4 3 2 2 2 2 1 1 1 2 2 2 2 2 2 2 2
3 3 4 4 4 4 4 4 4 4 4 4 4 4 4 3 3 3 3 2 3 4 4 3 3 3 5 4 3 2 2 1 1 1 1 1 2 2 2 2 2 2 1 1
3 3 4 4 4 4 4 5 5 4 4 4 3 3 3 3 2 2 3 1 1 2 3 2 1 2 5 3 3 2 1 1 1 2 2 1 1 1 1 1 1 0 0 1
3 3 3 3 3 3 4 4 4 4 4 3 3 3 3 3 3 3 4 4 2 2 2 1 2 3 4 2 2 2 2 2 2 3 2 2 2 1 0 0 0 0 0 1
3 3 3 3 3 4 4 4 4 4 4 4 4 3 3 3 3 3 3 3 3 2 3 2 1 2 2 1 1 2 2 1 1 1 2 2 2 1 1 0 1 1 0 0
3 2 2 2 2 3 4 4 4 4 4 4 4 4 4 4 3 4 4 4 4 3 3 2 2 2 2 1 1 1 1 2 2 2 2 2 2 1 1 1 1 1 1 0
Wind_Direction
252 252 235 233 230 228 237 250 258 260 269 286 329 345 50 89 121 137 148 157 160 160 159 166 161 163 167 168 165 163 165 164 158 157 164 167 159 156 154 164 180 181 185 195
240 234 232 235 233 232 236 244 246 251 260 322 39 111 116 121 137 151 155 163 163 162 163 169 167 168 166 168 169 166 170 170 162 166 164 161 162 163 161 173 193 196 196 207
240 223 236 236 234 228 227 239 246 252 251 120 135 93 112 139 143 138 146 158 169 174 175 174 173 173 174 175 171 172 174 174 169 173 166 165 171 171 177 179 188 203 206 209
241 226 233 187 158 230 218 229 250 258 246 204 195 158 133 119 109 133 132 157 168 178 180 178 174 176 179 177 175 176 176 178 176 179 174 177 180 181 189 192 196 208 217 216
233 231 226 174 181 218 224 203 358 307 305 154 136 156 134 90 55 32 47 167 172 179 181 175 172 171 177 183 182 186 185 185 184 187 181 182 181 183 191 205 216 220 222 224
227 233 231 121 84 279 230 193 60 10 36 51 237 220 108 46 19 30 37 111 146 168 172 170 169 170 179 184 186 195 196 192 184 189 189 191 189 199 204 219 231 241 231 235
232 229 176 47 346 221 225 85 48 26 32 29 360 354 17 14 20 35 44 96 135 156 165 167 170 177 186 188 196 203 205 201 191 190 193 193 188 196 212 225 232 241 232 224
236 230 146 31 67 42 38 45 59 47 69 53 21 16 34 25 22 28 18 132 149 160 154 165 177 190 195 199 204 203 207 205 193 194 203 187 190 204 213 219 217 216 214 227
352 47 60 45 48 45 53 61 57 31 33 39 10 6 11 14 360 352 337 178 172 172 159 172 188 197 207 204 206 205 206 207 201 199 202 203 205 208 211 212 223 223 221 230
131 97 80 68 55 47 39 36 37 31 12 344 336 337 347 344 339 341 343 198 183 184 180 181 195 197 200 199 204 212 214 208 203 203 205 202 215 221 224 223 227 225 239 248
159 96 78 78 44 27 13 5 2 11 3 327 321 340 6 342 343 355 14 111 176 186 181 185 190 206 207 198 204 215 220 217 214 213 206 209 214 236 251 244 249 252 258 259
357 25 325 5 7 2 359 1 358 359 9 355 340 342 345 334 158 120 121 142 146 193 205 194 203 215 221 215 213 217 223 223 222 221 209 213 209 205 166 246 180 209 260 274
358 351 4 24 349 354 355 358 358 4 3 348 345 351 354 18 25 35 139 136 159 211 215 216 233 242 232 229 223 224 235 231 232 230 221 221 219 222 213 197 196 209 216 220
41 26 55 26 3 352 354 2 15 24 13 9 7 10 13 22 10 35 72 51 215 227 222 259 269 275 253 234 229 231 237 222 225 224 225 228 227 229 230 227 214 208 195 194
10 357 28 46 31 21 16 21 22 15 15 21 20 12 1 5 9 37 46 56 141 199 228 281 293 312 285 248 237 239 241 230 234 240 234 229 230 234 237 238 237 223 190 170
351 42 70 56 39 36 36 35 23 10 5 2 359 356 358 352 6 53 60 63 36 4 353 328 326 321 300 270 249 239 236 216 232 245 242 232 226 230 234 231 230 222 216 197
154 88 47 22 13 13 13 20 16 7 357 351 346 345 349 355 23 46 42 36 19 358 343 330 320 298 274 262 250 241 238 208 211 236 240 246 247 244 236 231 220 213 219 173
343 340 352 353 353 353 351 0 2 350 338 333 338 345 347 344 350 4 10 12 10 18 11 347 335 306 285 271 262 260 244 236 231 241 246 251 258 251 242 229 217 217 216 179
34 29 25 19 14 359 346 349 344 342 337 336 341 347 347 342 345 347 351 342 340 8 10 359 352 289 279 283 277 248 249 244 238 238 244 233 238 244 237 233 231 225 230 224
29 31 25 23 21 13 357 346 340 340 339 339 339 342 347 352 351 353 352 353 357 355 355 350 320 300 282 261 275 258 252 243 236 232 237 237 243 243 243 249 255 251 249 246
19 23 24 21 13 9 359 343 334 336 340 339 338 337 336 339 344 346 335 348 6 360 338 296 276 299 299 308 262 260 247 244 243 237 233 232 238 243 244 240 244 253 256 258
5 6 3 1 356 357 352 339 332 327 327 333 338 338 339 336 339 340 340 342 348 0 320 308 326 6 338 298 266 268 257 250 246 237 228 232 230 236 243 246 248 253 248 248
355 353 345 342 344 344 346 348 341 330 331 335 338 340 342 338 333 331 331 344 343 356 317 330 11 358 309 282 279 270 271 279 283 273 239 228 237 248 255 254 253 250 252 253
0 353 341 335 333 336 345 346 344 341 334 325 330 335 324 317 324 320 327 347 349 328 311 359 358 305 282 273 280 284 295 303 307 312 320 317 286 268 255 258 263 258 248 251
359 351 342 329 322 327 333 331 334 338 333 336 339 340 332 334 330 328 328 331 343 293 298 268 215 241 257 279 300 325 337 351 348 335 329 320 321 332 336 332 312 284 305 288
345 333 333 324 328 326 324 327 334 344 343 346 347 346 340 333 318 314 312 312 312 298 287 292 279 243 256 292 320 330 328 327 301 290 304 305 321 330 344 354 305 297 303 341
336 335 328 324 327 329 330 331 332 339 340 341 341 336 329 325 323 326 323 317 310 303 303 304 306 310 307 306 313 317 323 332 324 316 317 325 330 324 333 308 310 317 310 4